Regional Weather Roundup
Issued by NWS

Home | Current Version | Previous Version | Text Only | Print | Product List | Glossary Off
Versions: 1 2 3 4 5 6 7 8 9 10 11 12 13 14 15 16 17 18 19 20 21 22 23 24 25 26 27 28 29 30 31 32 33 34 35 36 37 38 39 40 41 42 43 44 45 46 47 48 49 50

000
ASUS44 KMEG 230610
RWRTN
TENNESSEE HOURLY STATE WEATHER ROUNDUP
NATIONAL WEATHER SERVICE MEMPHIS TN
100 AM CDT SAT MAY 23 2015

TNZ002-004-019-021-049-052-054-088>092-230700-
WEST TENNESSEE

CITY           SKY/WX    TMP DP  RH WIND       PRES   REMARKS
MEMPHIS INTL   CLOUDY    65  49  56 E7        30.22F
NWS MEMPHIS      N/A     59 N/A N/A MISG        N/A
JACKSON        CLEAR     51  49  92 CALM      30.25S
DYERSBURG      PTCLDY    57  43  58 E3        30.25F
PARIS          CLEAR     54  48  82 CALM      30.26F
LEXINGTON      CLEAR     50  48  93 CALM      30.24F
$$

TNZ008-025-027-028-033-062-065-066-230700-
NORTH MIDDLE TENNESSEE

CITY           SKY/WX    TMP DP  RH WIND       PRES   REMARKS
NASHVILLE      PTCLDY    55  50  83 CALM      30.27F
CLARKSVILLE    PTCLDY    55  51  86 CALM      30.27S
SMYRNA         CLEAR     52  51  96 CALM      30.27F
COOKEVILLE     CLEAR     48  46  93 CALM      30.27F
CROSSVILLE     PTCLDY    52  47  83 CALM      30.31F
$$

TNZ061-075-076-078-094-096-097-230700-
SOUTH MIDDLE TENNESSEE

CITY           SKY/WX    TMP DP  RH WIND       PRES   REMARKS
FAYETTEVILLE   CLEAR    N/A N/A N/A MISG      30.27R
TULLAHOMA      CLEAR     48  45  87 CALM      30.28F
WINCHESTER     CLEAR     50  48  93 CALM      30.28S
MCMINNVILLE    CLEAR     50  48  93 CALM      30.28S
COLUMBIA       CLEAR     48  48 100 CALM      30.25F
SHELBYVILLE    CLEAR     54  48  82 CALM      30.27F
$$

TNZ017-018-042-046-047-230700-
NORTHEAST TENNESSEE

CITY           SKY/WX    TMP DP  RH WIND       PRES   REMARKS
TRI CITIES     PTCLDY    48  45  89 CALM      30.33F
ELIZABETHTON   CLEAR     48  41  76 NE3       30.34F
$$

TNZ012-013-036-069-073-074-230700-
CENTRAL EAST TENNESSEE

CITY           SKY/WX    TMP DP  RH WIND       PRES   REMARKS
KNOXVILLE      MOCLDY    53  47  79 NE3       30.28S
OAK RIDGE      PTCLDY    53  47  79 NE3       30.31F
GATLINBURG     CLEAR     48  45  87 CALM      30.30S
MORRISTOWN     CLEAR     54  48  82 E5        30.32S
$$

TNZ083-085-099-230700-
SOUTHEAST TENNESSEE

CITY           SKY/WX    TMP DP  RH WIND       PRES   REMARKS
CHATTANOOGA    CLEAR     55  50  83 CALM      30.28S
$$

SKY/WX REPORTED AS FAIR MEANS FEW OR NO CLOUDS BELOW
12 THOUSAND FEET.



USA.gov is the U.S. government's official web portal to all federal, state and local government web resources and services.